Tracking 20242 objects as of 25-Jan-2020
HD Live streaming from Space Station
objects crossing your sky now

SL-8 R/B

Track SL-8 R/B now!
10-day predictions


NORAD ID: 11112
Int'l Code: 1978-105B
Perigee: 751.1 km
Apogee: 798.4 km
Inclination: 74.0 °
Period: 100.2 minutes
Semi major axis: 7145 km
RCS: 4.9315 m2 (large)
Launch date: November 16, 1978
Source: Commonwealth of Independent States (former USSR) (CIS)
Launch site: PLESETSK MISSILE AND SPACE COMPLEX (PKMTR)

Note: This is a ROCKET BODY
aabbcc
Your satellite tracking list
Your tracking list is empty




NASA's NSSDC Master Catalog

Two Line Element Set (TLE):
1 11112U 78105B   20024.60066097 +.00000108 +00000-0 +44626-4 0  9994
2 11112 074.0291 215.7511 0033123 141.7138 218.6377 14.37246364156185
Source of the keplerian elements: AFSPC